CZ-6A DEB, 61837

Orbit data source: Space-Track

CZ-6A DEB, 61837 is space debris in LEO originally from a launch on Tue, 06 Aug 2024 UTC launched from the Taiyaun Space Center, China (TSC). Debris objects in space refer to the collection of defunct objects orbiting the Earth. Examples of debris include non-operational satellites, rocket bodies, and fragments generated from explosions, collisions, or faulty payload assembly.

Loading next visibility...
Identifier
61837, 2024-140ADD
Orbit
LEO
Country
Flag of CNCN / PRC
Related business
Manufacturer
SAST
Mission
Spacecraft
Bus & Motor
Unknown
Mass
Unknown
Launch date (UTC)
2024-08-06 (2 years ago)
Launch vehicle
Unknown
Launch site
Taiyaun Space Center, China (TSC)
Object type
Payload
Rocket body
Debris
Shape & HBR
Unknown shape, 0.1 m
Radar Cross Section
Medium (>0.1 m² and <1 m²)

Expand to show TLE details & history
Last TLE update: 15 hours ago

TLE from 15 hours ago
0 CZ-6A DEB
1 61837U 24140ADD 26171.23598839  .00003243  00000-0  16943-2 0  9997
2 61837  88.8429 263.5674 0105063 222.9079 136.3876 14.11426597 90266
Epoch: 2026-06-20T05:39Z
TLE epoch observation values (Epoch: 2026-06-20T05:39:49.396Z)
Latitude
-0.00005°
Longitude
-89.84193°
Altitude
912.938 km
Speed
7.367 km/s
True Right ascension
17h 34m 16s
True Declination
0° 00' 00"
Sunlit
Object was in full shadow at epoch
Visualization orbit readout
Latitude
Unknown
Longitude
Unknown
Altitude
Unknown
Speed
Unknown
Apparent Right ascension
Unknown
Apparent Declination
Unknown
Sunlit
N/A
Visualization observer readout
Local Sidereal Time
07:20:33
Azimuth
Unknown
Elevation
Unknown
Doppler factor
Unknown
Orbital elements
Apogee altitude
927.414 km
Perigee altitude
775.502 km
Semi-major axis
7,229.595 km
Eccentricity
0.01051
Inclination
88.8429°
RAAN
263.5674°
Arg. of periapsis
222.9079°
True anomaly
137.21019°
Mean anomaly
136.3876°
Eccentric anomaly
136.79968°
Mean motion
3.53079 °/min
Orbital period
101.96 mins
BSTAR
0.0016943
Loading maneuver chart data...
Computing Atmospheric mass density...
Loading historical data...
Loading historical data...
Loading historical data...
Loading historical data...
Loading historical data...
Loading historical data...
Loading historical data...

Documentation

Showing up to 5 results
|